Weather History for KBDH - March, 2014

Change the Weather History Date:

Monday, March 17, 2014

  Actual Average (KLJF) Record (KLJF)
Temperature  
Mean Temperature 36 °F -  
Max Temperature 44 °F 39 °F 73 °F (2012)
Min Temperature 28 °F 21 °F -9 °F (1993)
Degree Days  
Heating Degree Days 29    
Moisture  
Dew Point 26 °F    
Average Humidity 70    
Maximum Humidity 81    
Minimum Humidity 57    
Precipitation  
Precipitation 0.00 in - - ()
Sea Level Pressure  
Sea Level Pressure 29.60 in    
Wind  
Wind Speed 12 mph (SE)    
Max Wind Speed 20 mph    
Max Gust Speed 25 mph    
Visibility 10 miles    
Events      
Averages and records for this station are not official NWS values.
T = Trace of Precipitation, MM = Missing Value Source: NWS Daily Summary

Daily Weather History Graph

Daily Weather History Graph

Search for Another Location

Airport or City:

Trip Planner

Search our weather history database for the weather conditions in past years. The results will help you decide how hot, cold, wet, or windy it might be!

Date:

Astronomy

Mar. 17, 2014 Rise Set
Actual Time 7:29 AM CDT 7:29 PM CDT
Civil Twilight 6:59 AM CDT 7:58 PM CDT
Nautical Twilight 6:25 AM CDT 8:32 PM CDT
Astronomical Twilight 5:50 AM CDT 9:08 PM CDT
Moon 8:51 PM CDT (3/17) 7:41 AM CDT (3/17)
Length of Visible Light 12h 58m
Length of Day
11h 59m
Full, 99% of the Moon is Illuminated
Mar 17
Full
Mar 23
Last Quarter
Mar 30
New
Apr 7
First Quarter
Apr 15
Full

Hourly Weather History & Observations

Time (CDT) Temp. Windchill Dew Point Humidity Pressure Visibility Wind Dir Wind Speed Gust Speed Precip Events Conditions
12:15 AM 28.4 °F 17.5 °F 19.4 °F 69% 29.88 in 10.0 mi SSE 13.8 mph 23.0 mph N/A   Mostly Cloudy
12:35 AM 28.4 °F 17.0 °F 19.4 °F 69% 29.86 in 10.0 mi SSE 15.0 mph 21.9 mph N/A   Overcast
12:55 AM 28.4 °F 18.5 °F 19.4 °F 69% 29.85 in 10.0 mi South 11.5 mph 21.9 mph N/A   Mostly Cloudy
1:15 AM 28.4 °F 17.0 °F 19.4 °F 69% 29.83 in 10.0 mi SSE 15.0 mph 21.9 mph N/A   Mostly Cloudy
1:36 AM 28.4 °F 19.1 °F 19.4 °F 69% 29.82 in 10.0 mi South 10.4 mph 19.6 mph N/A   Mostly Cloudy
1:55 AM 28.4 °F 19.7 °F 19.4 °F 69% 29.80 in 10.0 mi South 9.2 mph 18.4 mph N/A   Mostly Cloudy
2:15 AM 28.4 °F 18.5 °F 19.4 °F 69% 29.78 in 10.0 mi SSE 11.5 mph 18.4 mph N/A   Scattered Clouds
2:36 AM 28.4 °F 18.5 °F 21.2 °F 74% 29.77 in 10.0 mi SSE 11.5 mph 18.4 mph N/A   Clear
2:55 AM 28.4 °F 18.0 °F 21.2 °F 74% 29.76 in 10.0 mi SSE 12.7 mph 19.6 mph N/A   Clear
3:15 AM 28.4 °F 18.0 °F 21.2 °F 74% 29.74 in 10.0 mi SSE 12.7 mph 18.4 mph N/A   Clear
3:36 AM 28.4 °F 18.0 °F 21.2 °F 74% 29.73 in 10.0 mi SSE 12.7 mph 19.6 mph N/A   Clear
3:55 AM 30.2 °F 20.2 °F 21.2 °F 69% 29.73 in 10.0 mi SSE 12.7 mph - N/A   Clear
4:15 AM 30.2 °F 19.8 °F 21.2 °F 69% 29.72 in 10.0 mi SSE 13.8 mph - N/A   Clear
4:36 AM 30.2 °F 19.3 °F 21.2 °F 69% 29.70 in 10.0 mi SSE 15.0 mph - N/A   Scattered Clouds
4:55 AM 30.2 °F 19.8 °F 21.2 °F 69% 29.69 in 10.0 mi SSE 13.8 mph 19.6 mph N/A   Scattered Clouds
5:15 AM 30.2 °F 20.2 °F 21.2 °F 69% 29.67 in 10.0 mi SSE 12.7 mph 18.4 mph N/A   Clear
5:35 AM 30.2 °F 20.8 °F 21.2 °F 69% 29.67 in 10.0 mi SSE 11.5 mph - N/A   Clear
5:55 AM 30.2 °F 20.8 °F 23.0 °F 75% 29.66 in 10.0 mi SSE 11.5 mph - N/A   Mostly Cloudy
6:16 AM 30.2 °F 22.6 °F 24.8 °F 80% 29.65 in 7.0 mi SSE 8.1 mph 18.4 mph N/A   Overcast
6:35 AM 30.2 °F 21.9 °F 23.0 °F 75% 29.64 in 10.0 mi South 9.2 mph - N/A   Overcast
6:55 AM 30.2 °F 21.9 °F 24.8 °F 80% 29.63 in 10.0 mi SSE 9.2 mph - N/A   Overcast
7:16 AM 30.2 °F 20.8 °F 24.8 °F 80% 29.61 in 10.0 mi SSE 11.5 mph - N/A   Mostly Cloudy
7:35 AM 30.2 °F 24.3 °F 24.8 °F 80% 29.61 in 10.0 mi South 5.8 mph - N/A   Mostly Cloudy
7:55 AM 30.2 °F 22.6 °F 24.8 °F 80% 29.60 in 10.0 mi South 8.1 mph - N/A   Mostly Cloudy
8:16 AM 30.2 °F 22.6 °F 24.8 °F 80% 29.59 in 10.0 mi South 8.1 mph - N/A   Scattered Clouds
8:35 AM 30.2 °F 22.6 °F 24.8 °F 80% 29.58 in 10.0 mi South 8.1 mph 16.1 mph N/A   Clear
8:55 AM 30.2 °F 24.3 °F 24.8 °F 80% 29.57 in 10.0 mi South 5.8 mph - N/A   Clear
9:15 AM 32.0 °F 25.6 °F 24.8 °F 75% 29.56 in 10.0 mi South 6.9 mph - N/A   Clear
9:35 AM 32.0 °F 25.6 °F 24.8 °F 75% 29.57 in 10.0 mi South 6.9 mph - N/A   Clear
9:56 AM 33.8 °F - 24.8 °F 70% 29.56 in 10.0 mi North - - N/A   Clear
10:15 AM 33.8 °F 26.4 °F 24.8 °F 70% 29.56 in 10.0 mi SSE 9.2 mph - N/A   Clear
10:35 AM 35.6 °F 29.2 °F 24.8 °F 65% 29.55 in 10.0 mi South 8.1 mph - N/A   Clear
10:55 AM 35.6 °F 29.2 °F 24.8 °F 65% 29.55 in 10.0 mi South 8.1 mph - N/A   Clear
11:15 AM 37.4 °F 32.1 °F 26.6 °F 65% 29.55 in 10.0 mi South 6.9 mph - N/A   Clear
11:36 AM 37.4 °F 32.1 °F 26.6 °F 65% 29.54 in 10.0 mi South 6.9 mph 16.1 mph N/A   Clear
11:55 AM 37.4 °F 31.4 °F 26.6 °F 65% 29.54 in 10.0 mi SSE 8.1 mph - N/A   Clear
12:16 PM 37.4 °F 29.8 °F 26.6 °F 65% 29.54 in 10.0 mi SSE 11.5 mph - N/A   Clear
12:35 PM 39.2 °F 31.6 °F 26.6 °F 61% 29.53 in 10.0 mi SSE 12.7 mph - N/A   Clear
12:56 PM 39.2 °F 32.0 °F 28.4 °F 65% 29.52 in 10.0 mi SSE 11.5 mph 16.1 mph N/A   Clear
1:15 PM 39.2 °F 31.2 °F 28.4 °F 65% 29.52 in 10.0 mi SSE 13.8 mph 17.3 mph N/A   Clear
1:36 PM 41.0 °F 33.5 °F 28.4 °F 61% 29.51 in 10.0 mi SSE 13.8 mph - N/A   Clear
1:55 PM 41.0 °F 34.7 °F 28.4 °F 61% 29.51 in 10.0 mi SSE 10.4 mph 18.4 mph N/A   Clear
2:15 PM 42.8 °F 35.8 °F 30.2 °F 61% 29.51 in 10.0 mi SE 13.8 mph - N/A   Clear
2:35 PM 42.8 °F 35.4 °F 30.2 °F 61% 29.50 in 10.0 mi SE 15.0 mph - N/A   Clear
2:55 PM 42.8 °F 35.8 °F 30.2 °F 61% 29.50 in 10.0 mi SSE 13.8 mph - N/A   Clear
3:15 PM 42.8 °F 36.2 °F 30.2 °F 61% 29.49 in 10.0 mi SE 12.7 mph - N/A   Clear
3:35 PM 44.6 °F 38.8 °F 30.2 °F 57% 29.50 in 10.0 mi SE 11.5 mph 17.3 mph N/A   Clear
3:55 PM 44.6 °F 38.4 °F 32.0 °F 61% 29.50 in 10.0 mi SE 12.7 mph - N/A   Clear
4:15 PM 42.8 °F 35.4 °F 32.0 °F 66% 29.49 in 10.0 mi SE 15.0 mph - N/A   Clear
4:35 PM 44.6 °F 37.2 °F 32.0 °F 61% 29.48 in 10.0 mi SE 17.3 mph - N/A   Clear
4:55 PM 44.6 °F 36.9 °F 32.0 °F 61% 29.47 in 10.0 mi SE 18.4 mph - N/A   Clear
5:15 PM 42.8 °F 35.1 °F 32.0 °F 66% 29.50 in 10.0 mi SE 16.1 mph - N/A   Clear
5:35 PM 42.8 °F 35.4 °F 32.0 °F 66% 29.50 in 10.0 mi ESE 15.0 mph 19.6 mph N/A   Clear
5:55 PM 42.8 °F 35.8 °F 32.0 °F 66% 29.51 in 10.0 mi ESE 13.8 mph 18.4 mph N/A   Clear
6:15 PM 41.0 °F 32.5 °F 32.0 °F 70% 29.51 in 10.0 mi ESE 17.3 mph - N/A   Clear
6:35 PM 39.2 °F 29.6 °F 30.2 °F 70% 29.51 in 10.0 mi ESE 19.6 mph - N/A   Clear
6:55 PM 39.2 °F 30.5 °F 30.2 °F 70% 29.51 in 10.0 mi ESE 16.1 mph - N/A   Clear
7:16 PM 37.4 °F 28.5 °F 30.2 °F 75% 29.52 in 10.0 mi East 15.0 mph - N/A   Clear
7:35 PM 37.4 °F 28.5 °F 28.4 °F 70% 29.51 in 10.0 mi East 15.0 mph - N/A   Clear
7:55 PM 37.4 °F 28.9 °F 28.4 °F 70% 29.52 in 10.0 mi East 13.8 mph 19.6 mph N/A   Clear
8:15 PM 35.6 °F 26.6 °F 28.4 °F 75% 29.53 in 10.0 mi East 13.8 mph - N/A   Clear
8:35 PM 35.6 °F 26.6 °F 28.4 °F 75% 29.54 in 10.0 mi East 13.8 mph 19.6 mph N/A   Clear
8:55 PM 35.6 °F 26.2 °F 28.4 °F 75% 29.53 in 10.0 mi East 15.0 mph 21.9 mph N/A   Clear
9:16 PM 35.6 °F 25.9 °F 28.4 °F 75% 29.54 in 10.0 mi East 16.1 mph - N/A   Clear
9:35 PM 35.6 °F 27.1 °F 28.4 °F 75% 29.55 in 10.0 mi East 12.7 mph - N/A   Clear
9:55 PM 35.6 °F 26.2 °F 28.4 °F 75% 29.57 in 10.0 mi East 15.0 mph 20.7 mph N/A   Clear
10:16 PM 35.6 °F 26.2 °F 28.4 °F 75% 29.57 in 10.0 mi East 15.0 mph 19.6 mph N/A   Clear
10:35 PM 35.6 °F 27.5 °F 28.4 °F 75% 29.58 in 10.0 mi East 11.5 mph 18.4 mph N/A   Clear
10:55 PM 33.8 °F 24.8 °F 28.4 °F 81% 29.58 in 10.0 mi East 12.7 mph 19.6 mph N/A   Clear
11:16 PM 33.8 °F 23.5 °F 28.4 °F 81% 29.57 in 10.0 mi East 16.1 mph 20.7 mph N/A   Clear
11:35 PM 33.8 °F 22.5 °F 28.4 °F 81% 29.55 in 10.0 mi East 19.6 mph 25.3 mph N/A   Clear
11:55 PM 33.8 °F 23.9 °F 26.6 °F 75% 29.56 in 10.0 mi East 15.0 mph 23.0 mph N/A   Scattered Clouds